Tracking 22779 objects as of 15-Apr-2021
HD Live streaming from Space Station
objects crossing your sky now

METEOR 2-17 DEB

Track METEOR 2-17 DEB now!
10-day predictions


NORAD ID: 38543
Int'l Code: 1988-005AW
Perigee: 826.9 km
Apogee: 838.1 km
Inclination: 82.5 °
Period: 101.4 minutes
Semi major axis: 7203 km
RCS: 0.011 m2 (small)
Launch date: January 30, 1988
Source: Commonwealth of Independent States (former USSR) (CIS)
Launch site: PLESETSK MISSILE AND SPACE COMPLEX (PKMTR)

Note: This is SATELLITE DEBRIS
aabbcc
Your satellite tracking list
Your tracking list is empty




NASA's NSSDC Master Catalog

Two Line Element Set (TLE):
1 38543U 88005AW  21104.53087710  .00001204  00000-0  55886-3 0  9995
2 38543  82.5351 179.4276 0007747  38.5808 321.5924 14.19989160366832
Source of the keplerian elements: AFSPC